Fosston, MN

2:39 AM CDT on May 26, 2017 (GMT -0500)
Fosston Municipal

Weather History for KFSE - April, 2014

Change the Weather History Date:

Wednesday, April 16, 2014

  Actual Average Record
Temperature  
Mean Temperature 34 °F -  
Max Temperature 41 °F 55 °F 82 °F (2002)
Min Temperature 24 °F 31 °F 13 °F (1953)
Degree Days  
Heating Degree Days 32    
Moisture  
Dew Point 11 °F    
Average Humidity 43    
Maximum Humidity 59    
Minimum Humidity 31    
Precipitation  
Precipitation 0.00 in - - ()
Sea Level Pressure  
Sea Level Pressure 30.09 in    
Wind  
Wind Speed 10 mph (ENE)    
Max Wind Speed 17 mph    
Max Gust Speed 26 mph    
Visibility 10 miles    
Events      
Averages and records for this station are not official NWS values.
T = Trace of Precipitation, MM = Missing Value Source: NWS Daily Summary

Daily Weather History Graph

Daily Weather History Graph

Search for Another Location

Airport or City:

Trip Planner

Search our weather history database for the weather conditions in past years. The results will help you decide how hot, cold, wet, or windy it might be!

Date:

Astronomy

Apr. 16, 2014 Rise Set
Actual Time 6:32 AM CDT 8:14 PM CDT
Civil Twilight 5:59 AM CDT 8:46 PM CDT
Nautical Twilight 5:20 AM CDT 9:26 PM CDT
Astronomical Twilight 4:37 AM CDT 10:10 PM CDT
Moon 10:05 PM CDT (4/16) 7:16 AM CDT (4/16)
Length of Visible Light 14h 46m
Length of Day
13h 41m
Full, 98% of the Moon is Illuminated
Apr 16
Full
Apr 22
Last Quarter
Apr 29
New
May 6
First Quarter
May 14
Full

Hourly Weather History & Observations

Time (CDT) Temp. Windchill Dew Point Humidity Pressure Visibility Wind Dir Wind Speed Gust Speed Precip Events Conditions
12:15 AM 26.6 °F 17.5 °F 8.6 °F 47% 30.01 in 10.0 mi East 9.2 mph - N/A   Overcast
12:35 AM 26.6 °F 17.5 °F 8.6 °F 47% 30.01 in 10.0 mi East 9.2 mph - N/A   Overcast
12:55 AM 26.6 °F 18.2 °F 8.6 °F 47% 30.01 in 10.0 mi East 8.1 mph - N/A   Overcast
1:16 AM 26.6 °F 17.5 °F 8.6 °F 47% 30.01 in 10.0 mi East 9.2 mph - N/A   Overcast
1:35 AM 26.6 °F 18.2 °F 8.6 °F 47% 30.01 in 10.0 mi East 8.1 mph - N/A   Overcast
1:55 AM 26.6 °F 17.5 °F 8.6 °F 47% 30.01 in 10.0 mi East 9.2 mph - N/A   Overcast
2:16 AM 26.6 °F 18.2 °F 8.6 °F 47% 30.01 in 10.0 mi East 8.1 mph - N/A   Mostly Cloudy
2:35 AM 26.6 °F 17.5 °F 8.6 °F 47% 30.01 in 10.0 mi East 9.2 mph - N/A   Overcast
2:55 AM 26.6 °F 19.1 °F 8.6 °F 47% 30.01 in 10.0 mi East 6.9 mph - N/A   Overcast
3:15 AM 26.6 °F 18.2 °F 8.6 °F 47% 30.01 in 10.0 mi East 8.1 mph - N/A   Overcast
3:35 AM 26.6 °F 18.2 °F 8.6 °F 47% 30.01 in 10.0 mi East 8.1 mph - N/A   Overcast
3:55 AM 26.6 °F 18.2 °F 6.8 °F 43% 30.01 in 10.0 mi East 8.1 mph - N/A   Mostly Cloudy
4:15 AM 26.6 °F 18.2 °F 6.8 °F 43% 30.01 in 10.0 mi East 8.1 mph - N/A   Mostly Cloudy
4:35 AM 26.6 °F 18.2 °F 6.8 °F 43% 30.01 in 10.0 mi East 8.1 mph - N/A   Overcast
4:55 AM 26.6 °F 17.5 °F 6.8 °F 43% 30.01 in 10.0 mi ENE 9.2 mph - N/A   Overcast
5:15 AM 26.6 °F 17.5 °F 6.8 °F 43% 30.01 in 10.0 mi ENE 9.2 mph - N/A   Overcast
5:35 AM 26.6 °F 16.8 °F 6.8 °F 43% 30.01 in 10.0 mi ENE 10.4 mph - N/A   Overcast
5:55 AM 26.6 °F 17.5 °F 6.8 °F 43% 30.02 in 10.0 mi ENE 9.2 mph - N/A   Overcast
6:15 AM 26.6 °F 17.5 °F 6.8 °F 43% 30.03 in 10.0 mi ENE 9.2 mph - N/A   Overcast
6:35 AM 26.6 °F 18.2 °F 6.8 °F 43% 30.03 in 10.0 mi East 8.1 mph - N/A   Overcast
6:55 AM 26.6 °F 16.8 °F 6.8 °F 43% 30.04 in 10.0 mi ENE 10.4 mph 16.1 mph N/A   Overcast
7:15 AM 26.6 °F 17.5 °F 6.8 °F 43% 30.05 in 10.0 mi East 9.2 mph - N/A   Mostly Cloudy
7:35 AM 26.6 °F 16.8 °F 6.8 °F 43% 30.05 in 10.0 mi East 10.4 mph - N/A   Mostly Cloudy
7:55 AM 26.6 °F 16.2 °F 6.8 °F 43% 30.05 in 10.0 mi ENE 11.5 mph - N/A   Scattered Clouds
8:15 AM 26.6 °F 18.2 °F 8.6 °F 47% 30.06 in 10.0 mi East 8.1 mph - N/A   Scattered Clouds
8:35 AM 28.4 °F 17.5 °F 8.6 °F 43% 30.07 in 10.0 mi ENE 13.8 mph 19.6 mph N/A   Clear
8:55 AM 28.4 °F 19.1 °F 8.6 °F 43% 30.07 in 10.0 mi ENE 10.4 mph 18.4 mph N/A   Clear
9:15 AM 28.4 °F 18.5 °F 8.6 °F 43% 30.07 in 10.0 mi East 11.5 mph 18.4 mph N/A   Scattered Clouds
9:35 AM 30.2 °F 18.9 °F 8.6 °F 40% 30.06 in 10.0 mi East 16.1 mph 23.0 mph N/A   Scattered Clouds
9:55 AM 32.0 °F 20.8 °F 10.4 °F 41% 30.06 in 10.0 mi East 17.3 mph 23.0 mph N/A   Scattered Clouds
10:15 AM 33.8 °F 23.2 °F 12.2 °F 41% 30.07 in 10.0 mi East 17.3 mph 24.2 mph N/A   Mostly Cloudy
10:35 AM 35.6 °F 26.2 °F 12.2 °F 38% 30.06 in 10.0 mi East 15.0 mph 20.7 mph N/A   Scattered Clouds
10:55 AM 35.6 °F 25.5 °F 12.2 °F 38% 30.07 in 10.0 mi ENE 17.3 mph 24.2 mph N/A   Scattered Clouds
11:15 AM 35.6 °F 26.6 °F 15.8 °F 44% 30.07 in 10.0 mi ENE 13.8 mph 26.5 mph N/A   Scattered Clouds
11:35 AM 35.6 °F 26.6 °F 15.8 °F 44% 30.08 in 10.0 mi ENE 13.8 mph 21.9 mph N/A   Clear
11:55 AM 35.6 °F 25.9 °F 15.8 °F 44% 30.08 in 10.0 mi East 16.1 mph 26.5 mph N/A   Scattered Clouds
12:15 PM 37.4 °F 28.9 °F 15.8 °F 41% 30.07 in 10.0 mi ENE 13.8 mph 19.6 mph N/A   Mostly Cloudy
12:35 PM 37.4 °F 29.3 °F 15.8 °F 41% 30.08 in 10.0 mi ENE 12.7 mph 20.7 mph N/A   Mostly Cloudy
12:55 PM 37.4 °F 29.3 °F 17.6 °F 45% 30.08 in 10.0 mi East 12.7 mph 21.9 mph N/A   Mostly Cloudy
1:15 PM 37.4 °F 28.5 °F 15.8 °F 41% 30.09 in 10.0 mi ENE 15.0 mph 21.9 mph N/A   Overcast
1:35 PM 37.4 °F 28.5 °F 15.8 °F 41% 30.08 in 10.0 mi ENE 15.0 mph 20.7 mph N/A   Overcast
1:55 PM 39.2 °F 31.2 °F 17.6 °F 42% 30.08 in 10.0 mi NE 13.8 mph - N/A   Overcast
2:15 PM 39.2 °F 31.2 °F 17.6 °F 42% 30.09 in 10.0 mi ENE 13.8 mph 20.7 mph N/A   Overcast
2:35 PM 39.2 °F 30.8 °F 15.8 °F 39% 30.10 in 10.0 mi ENE 15.0 mph 19.6 mph N/A   Overcast
2:55 PM 37.4 °F 29.8 °F 15.8 °F 41% 30.10 in 10.0 mi East 11.5 mph 18.4 mph N/A   Overcast
3:15 PM 39.2 °F 31.6 °F 15.8 °F 39% 30.11 in 10.0 mi East 12.7 mph 20.7 mph N/A   Overcast
3:35 PM 39.2 °F 31.2 °F 14.0 °F 36% 30.11 in 10.0 mi NE 13.8 mph 20.7 mph N/A   Overcast
3:55 PM 39.2 °F 30.5 °F 14.0 °F 36% 30.11 in 10.0 mi NE 16.1 mph 20.7 mph N/A   Overcast
4:15 PM 39.2 °F 31.6 °F 15.8 °F 39% 30.11 in 10.0 mi NE 12.7 mph 17.3 mph N/A   Mostly Cloudy
4:35 PM 41.0 °F 35.2 °F 14.0 °F 33% 30.12 in 10.0 mi NE 9.2 mph 19.6 mph N/A   Scattered Clouds
4:55 PM 41.0 °F 33.9 °F 12.2 °F 31% 30.12 in 10.0 mi ENE 12.7 mph 19.6 mph N/A   Clear
5:15 PM 41.0 °F 34.7 °F 12.2 °F 31% 30.13 in 10.0 mi NE 10.4 mph - N/A   Clear
5:35 PM 39.2 °F 31.2 °F 10.4 °F 31% 30.13 in 10.0 mi NNE 13.8 mph 24.2 mph N/A   Clear
5:55 PM 39.2 °F 31.2 °F 12.2 °F 33% 30.14 in 10.0 mi NE 13.8 mph 23.0 mph N/A   Clear
6:15 PM 39.2 °F 31.2 °F 12.2 °F 33% 30.14 in 10.0 mi NNE 13.8 mph 23.0 mph N/A   Clear
6:35 PM 39.2 °F 30.8 °F 10.4 °F 31% 30.15 in 10.0 mi NNE 15.0 mph 20.7 mph N/A   Clear
6:55 PM 37.4 °F 28.9 °F 10.4 °F 33% 30.16 in 10.0 mi NNE 13.8 mph 24.2 mph N/A   Clear
7:15 PM 37.4 °F 28.9 °F 10.4 °F 33% 30.16 in 10.0 mi NNE 13.8 mph 18.4 mph N/A   Clear
7:35 PM 35.6 °F 28.0 °F 10.4 °F 35% 30.17 in 10.0 mi NE 10.4 mph 19.6 mph N/A   Clear
7:55 PM 33.8 °F 25.8 °F 10.4 °F 38% 30.17 in 10.0 mi NNE 10.4 mph - N/A   Clear
8:15 PM 32.0 °F 24.2 °F 10.4 °F 41% 30.17 in 10.0 mi NE 9.2 mph 16.1 mph N/A   Clear
8:35 PM 30.2 °F 21.3 °F 10.4 °F 44% 30.19 in 10.0 mi NE 10.4 mph - N/A   Clear
8:55 PM 30.2 °F 21.9 °F 8.6 °F 40% 30.20 in 10.0 mi NE 9.2 mph - N/A   Clear
9:15 PM 28.4 °F 20.4 °F 10.4 °F 47% 30.20 in 10.0 mi NNE 8.1 mph - N/A   Clear
9:35 PM 28.4 °F 19.7 °F 10.4 °F 47% 30.21 in 10.0 mi NNE 9.2 mph - N/A   Clear
9:55 PM 28.4 °F 20.4 °F 10.4 °F 47% 30.21 in 10.0 mi NNE 8.1 mph - N/A   Clear
10:15 PM 26.6 °F 18.2 °F 10.4 °F 51% 30.21 in 10.0 mi NNE 8.1 mph - N/A   Clear
10:35 PM 26.6 °F 18.2 °F 12.2 °F 55% 30.22 in 10.0 mi NNE 8.1 mph - N/A   Clear
10:55 PM 26.6 °F 17.5 °F 12.2 °F 55% 30.23 in 10.0 mi NNE 9.2 mph - N/A   Clear
11:15 PM 26.6 °F 17.5 °F 12.2 °F 55% 30.23 in 10.0 mi NNE 9.2 mph - N/A   Clear
11:35 PM 26.6 °F 17.5 °F 12.2 °F 55% 30.23 in 10.0 mi NNE 9.2 mph - N/A   Clear
11:55 PM 24.8 °F 16.1 °F 12.2 °F 59% 30.24 in 10.0 mi NNE 8.1 mph - N/A   Clear